Temperature
11 11 11 10 10 10 10 10 10 10 10 10 9 9 9 9 9 10 9 9 9 9 9 9 9 9 9 9 9 9 9 8 8 8 8 8 8 8 8 8 8 8 8
11 10 10 10 9 9 9 9 9 10 10 10 9 9 9 9 9 9 9 9 9 9 9 9 9 9 9 9 9 8 8 8 8 8 8 7 7 8 8 8 8 8 8
10 10 9 9 9 9 9 9 9 9 9 9 9 9 9 8 8 8 8 9 9 9 9 9 9 9 8 8 8 8 8 8 8 8 8 7 7 7 7 7 7 7 7
9 9 9 8 8 8 8 8 8 9 9 9 9 8 8 8 8 8 8 8 8 8 8 8 8 8 8 8 8 8 8 8 7 7 7 7 7 7 7 7 7 7 7
9 8 8 8 8 8 8 8 8 8 8 8 8 8 8 8 8 8 8 8 8 8 8 8 8 8 8 8 8 7 7 7 7 7 7 7 7 7 7 6 6 6 7
8 8 8 7 7 7 7 7 7 7 7 8 8 8 8 8 7 7 7 7 7 7 7 7 7 7 7 7 7 7 7 7 7 7 7 7 7 7 7 6 6 6 6
7 7 7 6 6 6 6 7 7 7 7 7 7 7 7 7 7 7 7 7 7 7 7 7 7 7 7 7 7 7 7 7 7 6 6 6 6 6 6 6 6 6 6
6 6 6 6 6 6 6 6 6 7 7 7 7 7 7 7 7 6 6 6 7 7 7 7 7 7 7 7 6 6 6 6 6 6 6 6 6 6 6 6 6 5 5
5 5 5 5 5 5 5 6 6 6 6 6 6 6 6 6 6 6 6 6 6 6 6 7 6 6 6 6 6 6 6 6 6 6 6 5 5 5 5 5 5 5 4
4 4 4 4 4 4 5 5 5 5 6 5 6 6 6 6 6 6 6 6 6 6 6 6 6 6 6 6 6 6 6 5 5 5 5 5 5 5 5 5 5 4 4
4 3 3 3 3 4 4 4 5 5 5 5 5 5 5 5 5 5 5 5 5 5 5 5 6 6 6 5 5 5 5 5 5 5 5 5 4 5 4 4 4 4 4
3 3 2 2 3 3 3 4 4 4 5 5 5 5 5 5 5 5 5 5 5 5 5 5 5 5 5 5 5 5 5 5 4 4 4 4 4 4 4 4 4 4 4
2 2 2 2 2 2 2 3 3 4 4 4 4 4 4 4 4 5 4 4 4 4 5 5 5 5 5 4 4 4 4 4 4 4 4 4 4 4 4 4 3 3 3
1 1 1 1 1 2 2 2 2 3 3 4 4 4 4 4 4 4 4 4 4 4 4 4 4 4 4 4 4 4 4 4 4 4 4 4 3 3 3 3 3 3 3
0 0 0 0 1 1 1 1 2 2 3 3 3 3 4 4 4 4 4 4 4 4 4 4 4 4 4 4 3 3 3 3 3 3 3 3 3 3 3 3 2 2 2
-1 -1 -1 -0 0 0 1 1 1 1 2 2 2 3 3 3 3 3 3 3 3 3 3 3 3 3 3 3 3 3 3 3 3 3 3 3 2 2 2 2 2 2 2
-1 -1 -1 -1 -0 -0 0 0 1 1 1 1 2 2 2 3 3 3 3 3 3 3 3 3 3 3 3 3 3 3 3 2 2 3 3 2 2 2 2 2 2 2 1
-2 -2 -2 -1 -1 -0 -0 -0 0 0 1 1 1 1 2 2 2 2 2 2 2 2 2 2 2 2 2 2 2 2 2 2 2 2 2 2 2 2 2 1 1 1 1
-2 -2 -2 -2 -1 -1 -1 -1 -0 -0 0 0 0 1 1 1 1 1 2 2 2 2 2 2 1 1 2 2 2 2 2 1 1 2 1 1 1 1 1 1 1 1 1
-2 -2 -2 -2 -2 -2 -1 -1 -1 -1 -0 -0 -0 0 0 0 1 1 1 1 1 1 1 1 1 1 1 1 1 1 1 1 1 1 1 1 1 1 1 1 1 0 0
-3 -3 -3 -3 -3 -2 -2 -2 -1 -1 -1 -1 -1 -0 -0 -0 0 0 0 0 0 0 0 0 0 0 0 0 0 0 0 0 0 0 0 0 0 0 0 0 0 -0 -0
-3 -3 -3 -3 -3 -3 -2 -2 -2 -2 -2 -1 -1 -1 -1 -1 -0 -0 -0 -0 -0 -0 -0 -0 -0 -0 -0 -0 -0 -0 -0 -0 -0 -0 -0 -0 -0 -0 -0 -0 -1 -1 -1
-4 -4 -4 -4 -3 -3 -3 -3 -3 -3 -2 -2 -2 -1 -1 -1 -1 -1 -1 -1 -1 -1 -1 -1 -1 -1 -1 -1 -1 -1 -1 -1 -1 -1 -1 -1 -1 -1 -1 -1 -1 -1 -1
-5 -4 -4 -4 -4 -4 -4 -4 -3 -3 -2 -2 -2 -2 -2 -2 -1 -1 -1 -1 -1 -1 -2 -2 -2 -2 -2 -2 -2 -2 -2 -2 -2 -1 -1 -1 -1 -1 -1 -1 -2 -2 -2
-5 -5 -5 -5 -4 -4 -4 -4 -4 -3 -3 -3 -2 -2 -2 -2 -2 -2 -2 -2 -2 -2 -2 -2 -2 -2 -2 -2 -2 -2 -2 -2 -2 -2 -2 -2 -2 -2 -2 -2 -2 -2 -2
-5 -5 -5 -5 -5 -5 -4 -4 -4 -4 -3 -3 -3 -3 -3 -3 -3 -3 -2 -2 -2 -2 -2 -2 -2 -2 -2 -2 -2 -2 -2 -2 -3 -2 -2 -2 -2 -2 -2 -3 -3 -3 -3
Wind_Speed
4 4 5 5 5 5 5 6 6 6 5 4 4 4 4 3 3 3 5 5 5 5 5 4 4 3 3 3 3 3 4 3 3 3 2 2 2 2 2 2 3 3 4
3 3 5 5 5 5 5 5 6 6 6 5 4 4 4 3 3 3 4 5 5 5 5 4 4 4 3 3 3 3 2 2 3 3 2 1 1 1 0 1 1 2 3
3 3 3 4 5 5 6 6 6 6 6 6 4 4 3 3 3 3 3 4 5 5 4 4 4 4 3 3 3 3 3 3 2 2 2 3 3 1 0 1 1 1 1
2 2 3 3 4 4 4 4 5 6 6 7 6 7 6 5 4 4 3 4 4 4 5 5 4 4 4 3 4 3 3 4 3 2 1 2 2 2 1 1 1 1 1
2 3 2 3 4 4 4 4 5 5 5 6 7 7 6 4 4 5 5 4 4 4 5 5 5 4 4 4 4 3 3 3 3 2 2 1 1 1 2 2 2 1 1
2 2 2 2 3 3 3 4 5 5 5 6 6 7 7 6 6 6 6 5 4 4 4 5 5 5 4 4 4 4 4 3 3 2 2 2 2 2 2 2 2 2 2
3 3 2 2 2 2 3 4 5 5 5 5 6 6 7 7 8 7 7 6 4 3 5 4 4 4 4 5 4 4 4 4 4 3 2 2 2 2 2 2 2 1 1
3 3 2 1 1 1 3 4 4 4 4 5 5 6 6 5 5 6 6 6 5 5 5 5 5 5 5 5 4 3 3 3 4 4 3 2 2 2 2 2 3 1 1
4 3 3 2 1 1 1 3 4 4 4 4 5 6 6 6 5 5 6 5 5 5 6 6 5 5 5 5 5 4 4 4 4 4 3 2 2 2 2 2 3 3 3
4 3 3 4 2 1 1 1 2 3 4 4 4 5 5 5 5 5 6 6 6 5 6 6 6 5 5 5 4 4 4 5 4 3 4 3 2 2 2 2 2 2 3
4 3 3 4 2 2 1 1 1 2 3 3 3 4 4 5 5 5 6 6 5 6 6 7 6 6 5 5 5 4 5 5 4 4 4 4 3 3 3 2 2 2 2
4 4 4 4 3 3 2 1 1 0 2 3 3 3 4 4 5 5 5 6 6 6 6 6 6 6 5 5 5 6 5 6 6 5 5 4 3 3 3 3 3 3 3
5 5 4 4 3 3 3 2 1 1 0 2 3 3 4 4 5 5 4 5 6 5 5 5 6 6 5 5 5 5 5 5 5 6 6 5 5 4 3 3 3 3 3
5 5 5 5 4 3 3 2 2 1 0 1 2 3 4 4 4 5 5 4 5 5 5 5 5 5 5 5 5 4 4 4 4 4 5 5 6 6 5 4 4 3 3
6 6 5 5 4 4 4 3 2 2 1 1 1 2 2 3 4 4 4 4 4 4 4 5 4 4 4 5 5 5 5 4 4 4 4 4 5 6 5 4 4 4 4
7 6 6 6 5 5 4 4 3 2 1 1 0 1 2 3 3 4 4 4 4 4 4 4 4 4 3 5 6 5 4 4 5 4 4 4 5 5 5 5 4 4 4
8 7 6 6 5 5 4 3 2 2 2 2 1 1 2 3 3 3 4 4 4 4 4 4 4 4 4 6 6 5 4 4 4 4 4 4 4 5 4 4 3 3 5
8 7 6 6 5 5 4 4 3 3 3 3 2 2 2 2 3 3 3 3 4 4 3 3 4 4 4 6 5 5 4 3 3 3 4 4 4 4 4 3 3 2 3
7 6 5 5 5 5 5 4 4 4 4 4 3 2 2 2 3 3 3 2 3 3 2 3 3 3 3 5 5 4 3 2 2 2 2 3 4 4 5 4 4 3 3
7 6 5 6 6 5 5 5 5 4 4 4 3 3 2 2 2 2 2 2 2 2 3 2 2 3 3 4 5 5 3 3 2 1 2 3 4 4 4 3 4 4 3
7 7 6 5 5 5 5 5 5 5 4 4 3 3 3 2 2 2 2 2 2 2 2 2 2 2 2 3 4 4 3 3 3 2 2 2 3 4 4 3 3 4 3
8 7 6 6 6 6 5 5 6 5 4 4 4 4 3 2 2 2 2 2 2 3 3 2 1 1 1 2 3 3 3 3 3 3 2 2 3 2 2 3 3 3 1
7 7 6 6 6 6 5 5 6 5 4 4 4 3 3 3 2 2 2 2 2 2 2 2 1 1 1 1 2 3 2 2 1 2 3 2 2 1 1 2 1 1 1
7 7 6 6 6 6 6 6 6 5 4 4 4 3 3 3 3 2 2 1 1 1 2 1 1 1 1 1 1 1 1 1 1 1 2 2 2 1 1 1 0 1 1
7 6 6 6 6 6 6 6 6 5 5 4 4 4 3 3 2 2 2 1 1 1 1 1 1 2 1 1 2 2 1 2 3 2 2 1 1 1 1 0 0 0 1
6 6 6 6 6 6 6 7 6 6 5 4 4 3 2 2 2 2 2 4 2 3 2 1 1 0 1 1 1 1 1 2 4 3 2 2 2 2 2 1 1 1 1
Wind_Direction
190 169 160 158 159 162 165 167 166 166 161 163 164 162 164 162 157 140 144 145 154 159 148 149 152 153 158 160 152 141 135 129 117 102 85 46 55 77 75 88 108 109 119
184 165 160 165 170 174 177 173 172 170 169 171 170 165 157 162 162 154 144 152 156 162 156 152 161 155 155 155 151 140 140 146 134 132 131 129 13 332 84 93 115 123 116
186 179 174 172 168 176 182 184 177 172 171 166 158 154 147 146 157 164 166 162 161 165 156 155 152 155 159 165 162 161 149 166 174 148 145 154 192 178 247 221 157 151 140
179 180 176 174 175 183 180 179 176 173 174 171 171 172 175 174 174 168 169 167 157 157 159 154 154 157 159 170 175 165 158 160 178 190 162 141 138 145 173 263 236 188 178
180 175 169 172 174 174 172 172 170 175 178 179 177 177 183 176 158 160 163 167 164 165 165 157 159 164 165 170 172 164 168 167 174 176 167 124 74 119 161 208 238 267 254
96 107 108 126 150 154 161 165 166 175 179 180 180 183 185 175 166 167 169 173 174 172 168 162 164 166 166 169 173 176 173 172 170 171 162 158 163 189 169 184 200 224 243
75 69 84 100 123 151 162 167 168 175 180 181 183 186 187 181 178 175 174 175 177 176 182 174 172 170 168 164 163 172 178 171 169 174 179 169 174 170 158 159 177 200 230
67 60 69 83 122 137 168 169 171 174 177 181 185 184 186 184 183 176 171 177 181 182 182 177 173 168 166 166 163 172 178 167 168 173 167 164 177 163 163 166 163 173 235
54 45 34 33 80 123 182 172 171 175 179 186 187 182 183 182 178 171 166 171 171 176 176 173 171 168 166 167 166 175 177 169 171 175 171 169 174 163 157 152 162 170 201
35 32 26 14 13 61 141 136 148 173 177 187 191 182 177 179 175 172 169 168 169 168 170 172 171 168 167 170 171 173 174 168 173 172 171 177 179 172 168 170 185 184 192
19 19 15 4 9 38 71 114 126 160 175 180 183 173 171 170 171 175 171 165 165 166 170 172 172 168 171 173 169 170 172 171 173 178 177 184 180 174 181 181 188 195 187
13 18 14 9 18 29 27 56 69 135 179 168 175 175 169 171 170 171 169 165 167 169 170 168 168 169 169 171 173 176 178 176 179 183 180 188 182 180 188 192 200 203 200
13 11 12 10 14 20 13 7 357 357 175 153 165 173 171 173 175 171 165 166 165 167 167 166 170 171 170 173 174 176 179 181 183 184 185 188 179 191 195 197 203 207 211
10 8 7 4 7 13 13 2 356 355 9 140 163 180 180 178 178 168 164 166 165 166 167 167 170 170 173 174 172 171 174 181 186 185 185 188 188 194 193 197 201 198 195
9 4 359 358 358 6 9 11 19 5 7 111 151 194 178 165 161 157 154 157 162 164 161 160 165 168 174 175 171 178 181 183 185 183 183 190 191 196 199 201 203 198 199
358 354 356 357 357 0 359 359 6 11 38 73 89 161 147 140 149 154 153 154 157 156 157 163 168 173 177 170 175 180 181 184 185 185 185 190 192 193 196 204 211 211 208
356 354 354 352 350 353 353 351 353 15 46 65 47 87 136 135 138 149 152 158 159 156 157 165 168 172 170 174 181 185 185 185 187 187 186 190 194 191 188 198 209 228 239
354 354 354 350 351 352 356 3 19 49 58 59 49 52 100 124 125 130 145 150 147 146 152 164 168 168 174 176 179 183 182 180 184 188 192 193 190 193 188 181 190 217 236
353 350 350 354 0 2 1 13 25 42 51 44 35 43 89 114 119 124 128 128 131 133 145 154 156 162 174 178 176 171 168 164 174 189 198 194 187 189 186 184 193 210 235
360 358 4 11 11 5 7 23 25 31 31 22 16 19 51 88 108 121 118 111 119 129 136 135 145 156 161 168 168 167 167 168 170 177 194 197 193 194 197 200 194 206 227
3 4 10 13 5 6 17 21 21 13 8 15 24 33 42 59 87 101 107 117 119 125 127 131 135 144 156 164 169 177 177 178 177 189 200 203 196 206 211 218 209 214 220
3 4 8 9 6 12 20 18 11 2 8 21 37 39 34 36 66 88 93 110 131 132 127 125 115 116 138 151 169 181 189 187 183 196 196 188 190 207 215 216 216 212 198
358 359 2 6 6 11 18 17 0 359 5 24 39 37 34 34 52 82 92 100 114 119 118 126 127 105 104 151 172 182 183 183 194 187 177 182 189 198 195 210 226 188 166
356 358 3 6 3 4 10 11 3 1 11 26 32 33 39 41 46 53 66 83 100 120 131 146 148 140 138 151 148 158 165 156 154 154 164 171 173 162 163 156 147 156 178
353 357 1 4 2 5 8 7 5 12 20 19 23 23 24 33 45 45 50 62 46 98 142 163 165 171 195 216 206 192 188 183 182 156 133 128 138 129 118 122 130 131 132
354 355 359 2 2 8 7 6 8 11 15 13 14 15 16 18 32 46 40 45 53 53 54 60 123 172 186 186 213 215 199 186 170 151 157 165 166 175 178 182 188 188 196
Height
1466 1468 1470 1472 1474 1476 1478 1480 1482 1484 1487 1489 1491 1493 1495 1498 1500 1502 1504 1507 1509 1511 1513 1515 1517 1519 1522 1524 1526 1528 1530 1532 1534 1535 1537 1539 1540 1541 1542 1543 1543 1544 1545
1463 1465 1467 1469 1471 1472 1474 1476 1478 1481 1483 1486 1488 1490 1492 1495 1497 1499 1501 1504 1506 1508 1510 1512 1514 1516 1519 1521 1523 1525 1527 1529 1531 1533 1534 1536 1539 1539 1540 1541 1541 1542 1543
1460 1462 1463 1465 1467 1469 1470 1472 1474 1477 1480 1482 1485 1487 1489 1492 1494 1496 1498 1500 1503 1505 1507 1509 1511 1513 1516 1518 1520 1522 1524 1526 1528 1530 1532 1533 1534 1536 1537 1538 1539 1540 1541
1457 1459 1460 1462 1463 1465 1467 1469 1470 1473 1476 1478 1481 1483 1484 1486 1489 1492 1495 1497 1499 1502 1504 1506 1508 1511 1513 1515 1517 1519 1521 1523 1525 1527 1529 1531 1531 1533 1534 1536 1536 1537 1538
1455 1456 1458 1459 1460 1462 1463 1465 1467 1469 1472 1474 1477 1479 1481 1484 1486 1489 1491 1493 1496 1498 1501 1503 1505 1507 1509 1512 1514 1516 1518 1520 1522 1524 1525 1527 1529 1530 1531 1531 1533 1534 1535
1453 1454 1455 1456 1457 1459 1460 1462 1464 1466 1468 1470 1473 1475 1478 1480 1482 1484 1487 1489 1492 1495 1497 1499 1502 1504 1506 1508 1511 1513 1515 1517 1519 1521 1522 1524 1525 1526 1528 1528 1529 1530 1531
1451 1452 1452 1453 1454 1455 1457 1459 1460 1462 1464 1466 1469 1471 1474 1476 1478 1480 1483 1485 1488 1490 1493 1495 1498 1500 1502 1505 1507 1509 1511 1513 1515 1517 1519 1521 1522 1524 1525 1525 1526 1527 1528
1450 1451 1451 1451 1452 1453 1454 1456 1457 1459 1461 1463 1465 1467 1470 1472 1474 1477 1479 1482 1484 1486 1489 1492 1494 1497 1499 1501 1503 1506 1507 1509 1511 1513 1515 1517 1519 1520 1521 1522 1523 1523 1524
1450 1450 1450 1450 1450 1451 1452 1453 1454 1456 1457 1459 1461 1463 1466 1468 1470 1473 1476 1478 1480 1483 1486 1488 1491 1493 1495 1497 1500 1502 1503 1505 1507 1510 1511 1513 1515 1516 1518 1519 1520 1521 1520
1449 1449 1449 1449 1449 1449 1449 1450 1451 1453 1454 1456 1458 1460 1462 1465 1467 1470 1473 1475 1477 1480 1482 1484 1487 1489 1491 1493 1496 1498 1500 1501 1503 1506 1508 1509 1511 1512 1514 1515 1516 1517 1518
1449 1449 1448 1448 1447 1447 1447 1448 1449 1450 1452 1453 1455 1457 1459 1462 1464 1467 1470 1472 1474 1476 1478 1480 1483 1485 1487 1489 1491 1493 1496 1497 1499 1502 1503 1505 1507 1508 1510 1511 1512 1512 1513
1449 1448 1448 1447 1446 1445 1445 1446 1447 1448 1449 1451 1453 1454 1456 1459 1461 1463 1466 1469 1471 1473 1475 1477 1479 1481 1483 1486 1488 1490 1492 1493 1495 1497 1499 1501 1503 1504 1505 1506 1507 1508 1509
1449 1448 1447 1446 1445 1444 1444 1444 1445 1445 1447 1448 1450 1452 1454 1456 1458 1460 1463 1465 1468 1470 1472 1473 1475 1477 1479 1482 1484 1486 1488 1490 1492 1493 1495 1497 1498 1499 1501 1502 1503 1504 1505
1449 1447 1446 1445 1444 1444 1443 1443 1443 1444 1445 1446 1447 1449 1451 1453 1455 1457 1459 1462 1464 1466 1468 1470 1472 1474 1476 1478 1480 1482 1484 1486 1488 1489 1491 1492 1494 1495 1496 1498 1499 1499 1500
1449 1447 1446 1445 1443 1442 1442 1441 1441 1442 1443 1444 1445 1447 1449 1450 1452 1454 1456 1459 1461 1463 1464 1467 1469 1470 1472 1474 1476 1478 1480 1482 1484 1485 1487 1488 1490 1491 1492 1494 1494 1495 1496
1450 1448 1446 1444 1443 1441 1440 1440 1440 1440 1440 1441 1442 1444 1446 1447 1449 1451 1454 1456 1457 1459 1461 1463 1465 1467 1468 1471 1473 1475 1476 1478 1479 1481 1482 1484 1486 1487 1488 1489 1490 1491 1492
1450 1448 1445 1444 1442 1441 1440 1439 1438 1438 1439 1439 1440 1442 1443 1444 1446 1449 1451 1452 1454 1456 1458 1460 1461 1463 1465 1467 1469 1471 1473 1474 1475 1477 1478 1480 1481 1482 1484 1485 1486 1486 1487
1450 1448 1446 1443 1442 1440 1439 1438 1437 1437 1437 1438 1439 1440 1441 1442 1444 1446 1448 1450 1451 1453 1454 1456 1458 1460 1462 1464 1466 1468 1469 1470 1472 1473 1474 1476 1477 1478 1479 1480 1481 1481 1482
1450 1448 1446 1444 1442 1440 1439 1438 1437 1436 1436 1437 1438 1438 1439 1440 1441 1443 1445 1446 1448 1450 1452 1453 1455 1457 1458 1461 1463 1464 1466 1467 1468 1470 1471 1472 1473 1474 1475 1476 1476 1477 1477
1450 1447 1445 1443 1441 1440 1439 1437 1436 1436 1436 1436 1437 1437 1437 1438 1439 1440 1442 1444 1446 1447 1449 1450 1452 1454 1455 1457 1459 1461 1462 1463 1464 1466 1467 1468 1469 1470 1471 1471 1472 1472 1473
1449 1447 1445 1443 1442 1440 1439 1437 1436 1436 1436 1436 1436 1437 1437 1438 1438 1439 1440 1442 1444 1445 1446 1448 1449 1451 1453 1454 1455 1457 1458 1459 1460 1462 1463 1464 1465 1466 1467 1468 1468 1468 1469
1449 1447 1445 1443 1442 1441 1439 1437 1437 1436 1436 1436 1436 1436 1437 1437 1438 1438 1439 1441 1442 1443 1444 1445 1447 1448 1450 1451 1452 1453 1455 1456 1457 1458 1459 1460 1462 1462 1463 1464 1464 1465 1466
1449 1447 1445 1443 1442 1441 1439 1438 1437 1436 1436 1435 1436 1436 1436 1437 1437 1438 1438 1439 1440 1441 1442 1443 1444 1445 1447 1448 1449 1451 1452 1453 1454 1455 1456 1457 1458 1459 1459 1460 1461 1461 1462
1449 1447 1445 1443 1442 1441 1440 1438 1438 1437 1435 1435 1435 1436 1436 1436 1437 1437 1438 1439 1439 1440 1441 1442 1442 1443 1445 1446 1446 1447 1449 1450 1451 1452 1453 1454 1455 1456 1456 1457 1457 1458 1458
1450 1448 1446 1444 1442 1441 1440 1439 1438 1437 1435 1435 1435 1435 1436 1436 1436 1437 1438 1438 1439 1440 1440 1441 1441 1442 1443 1444 1445 1445 1446 1447 1448 1449 1450 1451 1452 1452 1453 1453 1454 1455 1455
1450 1448 1446 1444 1443 1441 1440 1439 1438 1437 1436 1435 1435 1435 1435 1436 1436 1436 1437 1438 1438 1439 1439 1440 1441 1441 1442 1442 1443 1443 1444 1445 1446 1447 1447 1447 1448 1449 1450 1450 1451 1452 1452